TimeCDT,TemperatureF,Dew PointF,Humidity,Sea Level PressureIn,VisibilityMPH,Wind Direction,Wind SpeedMPH,Gust SpeedMPH,PrecipitationIn,Events,Conditions,WindDirDegrees,DateUTC
12:02 AM,48.2,46.4,93,29.93,10.0,NW,11.5,-,N/A,,Overcast,320,2013-03-12 05:02:00
12:48 AM,48.2,42.8,82,29.93,10.0,NNW,18.4,27.6,N/A,,Overcast,330,2013-03-12 05:48:00
12:53 AM,48.0,43.0,83,29.92,10.0,NW,17.3,25.3,N/A,,Overcast,320,2013-03-12 05:53:00
1:53 AM,46.0,41.0,83,29.94,10.0,NNW,15.0,-,N/A,,Partly Cloudy,330,2013-03-12 06:53:00
2:53 AM,45.0,39.9,82,29.94,10.0,NNW,13.8,-,N/A,,Clear,340,2013-03-12 07:53:00
3:53 AM,44.1,39.0,82,29.95,10.0,NNW,15.0,-,N/A,,Clear,340,2013-03-12 08:53:00
4:53 AM,43.0,39.0,86,29.98,10.0,NNW,10.4,-,N/A,,Clear,340,2013-03-12 09:53:00
5:53 AM,42.1,39.0,89,30.00,10.0,NNW,6.9,-,N/A,,Clear,330,2013-03-12 10:53:00
6:53 AM,41.0,37.9,89,30.02,10.0,NNW,11.5,-,N/A,,Clear,330,2013-03-12 11:53:00
7:53 AM,41.0,35.1,79,30.04,10.0,NNW,10.4,-,N/A,,Clear,340,2013-03-12 12:53:00
8:53 AM,43.0,35.1,74,30.06,10.0,NNW,12.7,-,N/A,,Clear,340,2013-03-12 13:53:00
9:53 AM,46.9,36.0,66,30.07,10.0,NNW,13.8,-,N/A,,Clear,340,2013-03-12 14:53:00
10:53 AM,51.1,37.0,59,30.08,10.0,NNW,13.8,-,N/A,,Clear,340,2013-03-12 15:53:00
11:53 AM,54.0,36.0,51,30.08,10.0,NNW,11.5,-,N/A,,Clear,340,2013-03-12 16:53:00
12:53 PM,55.9,33.1,42,30.08,10.0,NNW,13.8,-,N/A,,Clear,330,2013-03-12 17:53:00
1:53 PM,60.1,33.1,36,30.05,10.0,NW,10.4,-,N/A,,Clear,320,2013-03-12 18:53:00
5:53 PM,61.0,32.0,34,30.06,10.0,NNW,9.2,-,N/A,,Clear,330,2013-03-12 22:53:00
6:53 PM,57.0,35.1,44,30.09,10.0,NW,8.1,-,N/A,,Clear,320,2013-03-12 23:53:00
7:53 PM,53.1,35.1,50,30.11,10.0,NW,6.9,-,N/A,,Clear,310,2013-03-13 00:53:00
8:53 PM,50.0,35.1,57,30.14,10.0,NW,6.9,-,N/A,,Clear,310,2013-03-13 01:53:00
9:53 PM,50.0,34.0,54,30.15,10.0,NW,8.1,-,N/A,,Clear,320,2013-03-13 02:53:00
10:53 PM,46.9,36.0,66,30.17,10.0,NW,6.9,-,N/A,,Clear,310,2013-03-13 03:53:00
11:53 PM,46.9,35.1,63,30.17,10.0,WNW,5.8,-,N/A,,Clear,300,2013-03-13 04:53:00